YAHSAT 1A

Last updated on Fri Dec 19 2025 00:02:50 GMT+0000 (Coordinated Universal Time)

1 37393U 11016B 25352.49302757 .00000000 00000+0 00000+0 0 9996 2 37393 0.0216 355.4338 0002808 300.0783 21.8195 1.00273467 40590
UTC large
Height (km)
Speed (km/s)
/
Latitude / Longitude
Inclination (degrees)
Orbital Period (minutes)
Azimuth
Elevation
Range (km)
Doppler Factor

Next 0 passes for location: London (51.5072 / 0.1276)

Sorry there are no passes over London.